FW4608 Weather Reports


time (UTC)temp
C
wind
direction
speed
KPH
gust
KPH
rain 1hr
cm
rain 24hr
cm
rain mn
cm
humidity
%
barometer
mb
20260510023052 21 309 0.0 0.0 0.00 0.48 0.43 95 1014.1
20260510022551 21 309 0.0 0.0 0.00 0.48 0.43 95 1013.9
20260510022050 21 309 0.0 0.0 0.00 0.48 0.43 95 1013.9
20260510021552 21 309 0.0 0.0 0.00 0.48 0.43 95 1013.7
20260510021051 21 309 0.0 0.0 0.00 0.48 0.43 95 1013.8
20260510020659 21 309 0.0 0.0 0.00 0.48 0.43 95 1013.9
20260510020047 21 309 0.0 0.0 0.00 0.48 0.43 95 1013.7
20260510015547 21 309 0.0 0.0 0.00 0.48 0.43 95 1013.5
20260510015047 21 309 0.0 0.0 0.00 0.48 0.43 95 1013.4
20260510014546 21 309 0.0 0.0 0.00 0.48 0.43 95 1013.4
20260510014045 21 309 0.0 0.0 0.00 0.48 0.43 95 1013.3
20260510013547 21 309 0.0 0.0 0.00 0.48 0.43 95 1013.1
20260510013049 21 309 0.0 0.0 0.00 0.48 0.43 95 1013.3
20260510012547 21 309 0.0 0.0 0.00 0.48 0.43 95 1013.1
20260510012142 21 309 0.0 0.0 0.00 0.48 0.43 95 1013.2
20260510011542 21 309 0.0 0.0 0.00 0.48 0.43 95 1013.2
20260510011046 21 309 0.0 0.0 0.03 0.48 0.43 95 1013.0
20260510010537 21 309 0.0 0.0 0.03 0.48 0.43 95 1013.0
20260510010037 21 309 0.0 0.0 0.03 0.48 0.43 95 1013.1
20260510005537 21 309 0.0 0.0 0.05 0.48 0.43 95 1013.1
20260510005039 21 309 0.0 0.0 0.05 0.48 0.43 95 1012.9
20260510004533 21 309 0.0 0.0 0.05 0.48 0.43 95 1013.1
20260510004037 21 309 0.0 0.0 0.05 0.48 0.43 95 1012.9
20260510003537 21 309 0.0 0.0 0.05 0.48 0.43 95 1012.9
20260510003033 21 309 0.0 0.0 0.05 0.48 0.43 95 1013.1
20260510002532 21 309 0.0 0.0 0.05 0.48 0.43 95 1013.2
20260510002035 21 309 0.0 0.0 0.05 0.48 0.43 95 1013.3
20260510001531 21 309 0.0 0.0 0.05 0.48 0.43 95 1013.3
20260510001030 21 309 0.0 0.0 0.03 0.46 0.41 95 1013.5
20260510000531 21 309 0.0 0.0 0.03 0.46 0.41 95 1013.5
20260510000029 21 309 0.0 0.0 0.03 0.46 0.41 95 1013.4
20260509235531 21 309 0.0 0.0 0.00 0.43 0.38 94 1013.5
20260509235028 21 309 0.0 0.0 0.00 0.43 0.38 94 1013.5
20260509234536 21 309 0.0 1.6 0.00 0.43 0.38 94 1013.5
20260509234027 21 309 0.0 1.6 0.00 0.43 0.38 94 1013.3
20260509233529 22 343 0.0 0.0 0.00 0.43 0.38 94 1013.2
20260509233025 21 343 0.0 0.0 0.00 0.43 0.38 94 1013.2
20260509232524 22 343 0.0 0.0 0.00 0.43 0.38 94 1013.4
20260509232027 22 342 0.0 0.0 0.00 0.43 0.38 94 1013.2
20260509231528 22 343 0.0 0.0 0.00 0.43 0.38 94 1013.2
20260509231021 22 342 0.0 1.6 0.00 0.43 0.38 94 1013.4
20260509230520 22 343 0.0 1.6 0.00 0.43 0.38 94 1013.2
20260509230035 22 345 0.0 3.2 0.03 0.43 0.38 94 1013.2
20260509225518 22 321 0.0 3.2 0.03 0.43 0.38 94 1013.1
20260509225017 22 337 0.0 3.2 0.05 0.43 0.38 94 1013.1
20260509224518 22 337 0.0 3.2 0.05 0.43 0.38 94 1013.1
20260509224015 22 170 0.0 1.6 0.05 0.43 0.38 94 1013.1
20260509223522 22 356 0.0 1.6 0.05 0.43 0.38 94 1013.1
20260509223019 22 357 0.0 1.6 0.05 0.43 0.38 94 1013.0
20260509222513 22 357 0.0 1.6 0.05 0.43 0.38 94 1013.1
20260509222017 22 358 0.0 1.6 0.05 0.43 0.38 94 1013.1
20260509221513 22 357 0.0 1.6 0.05 0.43 0.38 94 1013.1
20260509221015 22 255 0.0 1.6 0.05 0.43 0.38 94 1013.0
20260509220511 22 255 0.0 1.6 0.03 0.41 0.36 94 1013.0
20260509220014 22 255 0.0 3.2 0.03 0.41 0.36 94 1013.1
20260509215516 22 324 0.0 3.2 0.03 0.41 0.36 94 1013.0
20260509215011 22 146 0.0 1.6 0.00 0.38 0.33 94 1013.0
20260509214510 22 208 0.0 1.6 0.00 0.38 0.33 94 1012.9
20260509214017 23 334 0.0 1.6 0.00 0.38 0.33 94 1012.7
20260509213510 23 155 0.0 0.0 0.00 0.38 0.33 94 1012.8
20260509213008 23 259 0.0 1.6 0.00 0.38 0.33 93 1012.9
20260509212608 23 259 0.0 1.6 0.00 0.38 0.33 93 1012.8
20260509212007 23 108 0.0 1.6 0.00 0.38 0.33 94 1012.8
20260509211508 23 252 0.0 3.2 0.00 0.38 0.33 94 1012.9
20260509211007 23 326 0.0 3.2 0.00 0.38 0.33 94 1012.9
20260509210506 23 235 0.0 0.0 0.00 0.38 0.33 94 1012.8
20260509210004 23 235 0.0 1.6 0.00 0.38 0.33 94 1012.7
20260509205503 23 235 0.0 3.2 0.00 0.38 0.33 93 1012.6
20260509205005 23 233 0.0 3.2 0.00 0.38 0.33 93 1012.7
20260509204504 23 205 0.0 1.6 0.00 0.38 0.33 93 1012.6
20260509204002 23 269 0.0 1.6 0.18 0.38 0.33 93 1012.6
20260509203601 23 269 0.0 1.6 0.23 0.38 0.33 93 1012.7
20260509203100 23 282 0.0 1.6 0.23 0.38 0.33 93 1012.7
20260509203008 23 239 0.0 0.0 0.23 0.38 0.33 93 1012.7
20260509202502 23 225 0.0 0.0 0.23 0.38 0.33 93 1012.6
20260509202102 23 225 0.0 0.0 0.23 0.38 0.33 93 1012.6
20260509201600 23 225 0.0 0.0 0.25 0.38 0.33 93 1012.5
20260509201001 23 229 0.0 0.0 0.25 0.38 0.33 93 1012.6
20260509200557 23 229 0.0 1.6 0.25 0.38 0.33 93 1012.5
20260509200108 23 229 0.0 1.6 0.25 0.38 0.33 93 1012.7
20260509200003 23 229 0.0 1.6 0.25 0.38 0.33 92 1012.7
20260509195558 23 245 0.0 1.6 0.25 0.38 0.33 92 1012.5
20260509195055 23 311 0.0 3.2 0.28 0.38 0.33 91 1012.5
20260509194555 24 228 0.0 3.2 0.28 0.38 0.33 91 1012.4
20260509194057 24 299 0.0 1.6 0.15 0.25 0.20 90 1012.8
20260509193607 25 258 0.0 1.6 0.08 0.15 0.10 90 1012.7
20260509192558 25 260 0.0 1.6 0.08 0.15 0.10 90 1012.7
20260509192058 25 266 0.0 1.6 0.08 0.15 0.10 90 1012.7
20260509191550 25 266 0.0 1.6 0.05 0.13 0.08 90 1012.7
20260509191053 25 266 0.0 0.0 0.05 0.13 0.08 90 1012.6
20260509190546 25 265 0.0 0.0 0.05 0.13 0.08 90 1012.5
20260509190056 25 269 0.0 0.0 0.05 0.13 0.08 90 1012.6
20260509185548 25 269 0.0 0.0 0.05 0.13 0.08 89 1012.7
20260509184614 25 269 0.0 0.0 0.03 0.10 0.05 87 1012.6
20260509184045 26 269 0.0 0.0 0.03 0.10 0.05 87 1012.7
20260509183547 26 269 0.0 3.2 0.00 0.08 0.03 86 1012.7
20260509183042 26 256 0.0 3.2 0.00 0.08 0.03 85 1012.8
20260509182546 26 265 0.0 1.6 0.00 0.08 0.03 85 1013.0
20260509182044 26 266 0.0 4.8 0.00 0.08 0.03 84 1012.7
20260509181547 26 248 0.0 4.8 0.00 0.08 0.03 83 1013.0
20260509181040 26 255 0.0 3.2 0.00 0.08 0.03 83 1013.0
20260509180539 27 171 0.0 3.2 0.00 0.08 0.03 82 1013.0
20260509180037 27 260 0.0 3.2 0.00 0.08 0.03 82 1013.0
20260509175541 27 236 0.0 4.8 0.00 0.08 0.03 82 1013.0
20260509175036 27 242 1.6 4.8 0.00 0.08 0.03 83 1013.0
20260509174538 27 231 0.0 4.8 0.00 0.08 0.03 81 1013.0
20260509174035 27 321 0.0 4.8 0.00 0.08 0.03 83 1013.1
20260509173536 27 252 1.6 4.8 0.00 0.08 0.03 82 1013.1
20260509173036 27 237 0.0 4.8 0.00 0.08 0.03 84 1013.1
20260509172531 27 274 0.0 4.8 0.00 0.08 0.03 84 1013.1
20260509172031 27 228 0.0 4.8 0.00 0.08 0.03 84 1013.1
20260509171532 27 101 0.0 3.2 0.00 0.08 0.03 83 1013.0
20260509171026 27 248 0.0 4.8 0.00 0.08 0.03 84 1013.0
20260509170525 26 292 0.0 4.8 0.00 0.08 0.03 84 1013.2
20260509170029 26 230 0.0 4.8 0.00 0.08 0.03 84 1013.3
20260509165523 26 285 0.0 1.6 0.00 0.08 0.03 84 1013.2
20260509165136 27 241 0.0 1.6 0.00 0.08 0.03 84 1013.3
20260509164518 27 172 0.0 0.0 0.00 0.08 0.03 84 1013.3
20260509164019 26 159 0.0 1.6 0.00 0.08 0.03 85 1013.4
20260509163521 26 113 0.0 1.6 0.00 0.08 0.03 85 1013.5
20260509163014 26 112 0.0 1.6 0.00 0.08 0.03 86 1013.6
20260509162514 26 244 0.0 3.2 0.00 0.08 0.03 85 1013.5
20260509162015 26 185 0.0 3.2 0.00 0.08 0.03 86 1013.4
20260509161510 25 222 0.0 3.2 0.00 0.08 0.03 86 1013.6
20260509161009 25 115 0.0 3.2 0.00 0.08 0.03 86 1013.5
20260509160509 25 244 0.0 3.2 0.00 0.08 0.03 86 1013.6
20260509160010 26 247 0.0 1.6 0.00 0.08 0.03 87 1013.7
20260509155513 25 242 0.0 3.2 0.00 0.08 0.03 86 1013.5
20260509155007 25 259 0.0 4.8 0.00 0.08 0.03 86 1013.6
20260509154506 25 255 0.0 4.8 0.00 0.08 0.03 86 1013.7
20260509154008 26 214 0.0 1.6 0.00 0.08 0.03 87 1013.6
20260509153604 25 165 0.0 1.6 0.00 0.08 0.03 86 1013.5
20260509153004 25 150 0.0 1.6 0.00 0.08 0.03 87 1013.4
20260509152510 25 103 0.0 1.6 0.00 0.08 0.03 87 1013.3
20260509152105 25 103 0.0 1.6 0.00 0.08 0.03 87 1013.4
20260509151503 25 111 0.0 1.6 0.00 0.08 0.03 87 1013.5
20260509151002 25 143 0.0 1.6 0.00 0.08 0.03 87 1013.5
20260509150600 25 314 0.0 3.2 0.00 0.08 0.03 86 1013.5
20260509145558 25 193 0.0 1.6 0.00 0.08 0.03 87 1013.9
20260509145058 25 271 0.0 3.2 0.00 0.08 0.03 88 1013.7
20260509144600 25 217 0.0 3.2 0.00 0.08 0.03 87 1013.7
20260509144048 25 245 0.0 6.4 0.00 0.08 0.03 88 1013.6
20260509143549 25 122 0.0 6.4 0.00 0.08 0.03 87 1013.5
20260509143051 25 245 0.0 3.2 0.00 0.08 0.03 88 1013.6
20260509142544 24 311 0.0 3.2 0.00 0.08 0.03 88 1013.4
20260509142047 24 248 0.0 3.2 0.00 0.08 0.03 89 1013.4
20260509141551 24 289 0.0 3.2 0.00 0.08 0.03 88 1013.3
20260509141045 24 271 0.0 3.2 0.00 0.08 0.03 89 1013.4
20260509140541 24 150 0.0 1.6 0.00 0.08 0.03 89 1013.6
20260509140027 23 167 0.0 6.4 0.00 0.08 0.03 89 1013.7
20260509135524 24 248 1.6 4.8 0.00 0.08 0.03 89 1013.8
20260509135022 24 266 0.0 3.2 0.00 0.08 0.03 89 1013.9
20260509134519 23 237 0.0 1.6 0.00 0.08 0.03 90 1013.7
20260509134018 23 237 0.0 3.2 0.00 0.08 0.03 90 1013.7
20260509133515 23 305 0.0 4.8 0.00 0.08 0.03 90 1013.6
20260509133015 23 248 0.0 4.8 0.00 0.08 0.03 90 1013.4
20260509132513 23 84 0.0 3.2 0.00 0.08 0.03 90 1013.2
20260509132013 23 75 0.0 3.2 0.00 0.08 0.03 90 1013.2
20260509131613 23 61 0.0 4.8 0.00 0.08 0.03 90 1013.1
20260509131048 23 256 0.0 4.8 0.00 0.08 0.03 91 1013.0
20260509130647 22 246 0.0 3.2 0.00 0.08 0.03 91 1013.0
20260509130042 22 215 0.0 1.6 0.00 0.08 0.03 91 1013.1
20260509125531 22 135 0.0 8.0 0.00 0.08 0.03 92 1013.0
20260509125028 22 134 0.0 8.0 0.00 0.08 0.03 92 1013.0
20260509124534 22 294 0.0 4.8 0.00 0.08 0.03 93 1012.9
20260509124024 22 96 0.0 4.8 0.00 0.08 0.03 93 1012.8
20260509123522 21 173 0.0 8.0 0.00 0.08 0.03 94 1012.6
20260509123030 21 219 0.0 8.0 0.00 0.08 0.03 94 1012.5
20260509122518 21 64 0.0 3.2 0.00 0.08 0.03 95 1012.5
20260509122019 21 125 0.0 4.8 0.00 0.08 0.03 95 1012.5
20260509121520 21 139 0.0 4.8 0.00 0.08 0.03 95 1012.5
20260509121018 21 239 0.0 1.6 0.00 0.08 0.03 95 1012.4
20260509120515 20 196 0.0 3.2 0.00 0.08 0.03 94 1012.3
20260509120014 20 300 0.0 4.8 0.00 0.08 0.03 94 1012.3
20260509115512 20 297 0.0 1.6 0.00 0.08 0.03 94 1012.4
20260509115020 20 279 0.0 3.2 0.00 0.08 0.03 94 1012.4
20260509114613 20 268 0.0 3.2 0.00 0.08 0.03 94 1012.3
20260509114016 20 103 0.0 1.6 0.00 0.08 0.03 94 1012.1
20260509113511 19 240 0.0 1.6 0.00 0.08 0.03 94 1012.2
20260509113010 19 240 0.0 1.6 0.00 0.08 0.03 94 1012.1
20260509112511 19 240 0.0 1.6 0.00 0.08 0.03 94 1012.0
20260509112009 19 240 0.0 0.0 0.00 0.08 0.03 94 1012.0
20260509111519 18 222 0.0 0.0 0.00 0.08 0.03 94 1012.0
20260509111010 18 222 0.0 1.6 0.00 0.08 0.03 94 1012.2
20260509110505 18 221 0.0 1.6 0.00 0.08 0.03 94 1012.0
20260509110004 18 234 0.0 1.6 0.00 0.08 0.03 94 1011.9
20260509105504 18 234 0.0 1.6 0.00 0.08 0.03 94 1011.8
20260509105005 18 140 0.0 1.6 0.00 0.08 0.03 94 1011.8
20260509104516 18 137 0.0 0.0 0.00 0.08 0.03 94 1011.8
20260509104001 18 137 0.0 0.0 0.00 0.08 0.03 94 1011.8
20260509103505 18 137 0.0 0.0 0.00 0.08 0.03 94 1012.0
20260509103102 18 137 0.0 0.0 0.00 0.08 0.03 94 1012.0
20260509102559 18 137 0.0 0.0 0.00 0.08 0.03 94 1012.0
20260509102056 18 137 0.0 0.0 0.00 0.08 0.03 94 1011.9
20260509101559 18 137 0.0 0.0 0.00 0.08 0.03 94 1011.9
20260509101054 18 137 0.0 0.0 0.00 0.08 0.03 94 1012.0
20260509100554 18 137 0.0 0.0 0.00 0.08 0.03 94 1011.9
20260509100109 18 137 0.0 0.0 0.00 0.08 0.03 94 1012.0
20260509100012 18 137 0.0 0.0 0.00 0.08 0.03 94 1012.0
20260509095601 18 137 0.0 0.0 0.00 0.08 0.03 94 1012.2
20260509095051 18 137 0.0 0.0 0.00 0.08 0.03 94 1012.4
20260509094553 18 137 0.0 0.0 0.00 0.08 0.03 94 1012.5
20260509094052 18 137 0.0 0.0 0.00 0.08 0.03 93 1012.3
20260509093547 18 137 0.0 0.0 0.00 0.08 0.03 93 1012.3
20260509093048 18 137 0.0 0.0 0.00 0.08 0.03 93 1012.3
20260509092547 18 137 0.0 0.0 0.00 0.08 0.03 93 1012.2
20260509092046 18 137 0.0 0.0 0.00 0.08 0.03 93 1012.1
20260509091559 18 137 0.0 0.0 0.00 0.08 0.03 93 1012.1
20260509091045 18 137 0.0 0.0 0.00 0.08 0.03 93 1012.1
20260509090545 18 137 0.0 0.0 0.00 0.08 0.03 93 1012.1
20260509090048 18 137 0.0 0.0 0.00 0.08 0.03 93 1012.1
20260509085544 18 137 0.0 0.0 0.00 0.08 0.03 93 1012.1
20260509085046 18 137 0.0 0.0 0.00 0.08 0.03 93 1012.1
20260509084546 18 137 0.0 1.6 0.00 0.08 0.03 93 1012.0
20260509084045 18 138 0.0 1.6 0.00 0.08 0.03 93 1012.0
20260509083539 18 123 0.0 0.0 0.00 0.08 0.03 93 1012.0
20260509083043 18 123 0.0 0.0 0.00 0.08 0.03 93 1012.1
20260509082538 18 123 0.0 0.0 0.00 0.08 0.03 93 1012.3
20260509082041 18 123 0.0 0.0 0.00 0.08 0.03 93 1012.2
20260509081537 18 123 0.0 0.0 0.00 0.08 0.03 93 1012.3
20260509081037 18 123 0.0 0.0 0.00 0.08 0.03 93 1012.4
20260509080536 18 123 0.0 0.0 0.00 0.08 0.03 93 1012.4
20260509080041 18 123 0.0 0.0 0.00 0.08 0.03 93 1012.5
20260509075532 18 123 0.0 0.0 0.00 0.08 0.03 93 1012.6
20260509075032 18 123 0.0 0.0 0.00 0.08 0.03 93 1012.6
20260509074531 18 123 0.0 0.0 0.00 0.08 0.03 93 1012.5
20260509074035 18 123 0.0 0.0 0.00 0.08 0.03 93 1012.4
20260509073532 18 123 0.0 0.0 0.00 0.08 0.03 93 1012.5
20260509073033 18 123 0.0 0.0 0.00 0.08 0.03 93 1012.4
20260509072529 18 123 0.0 0.0 0.00 0.08 0.03 93 1012.5
20260509072026 18 123 0.0 0.0 0.00 0.08 0.03 93 1012.6
20260509071523 18 123 0.0 0.0 0.00 0.08 0.03 93 1012.6
20260509071022 18 123 0.0 0.0 0.00 0.08 0.03 92 1012.7
20260509070522 18 123 0.0 0.0 0.00 0.08 0.03 92 1012.8
20260509070019 18 123 0.0 0.0 0.00 0.08 0.03 92 1013.0
20260509065518 18 123 0.0 0.0 0.00 0.08 0.03 92 1013.1
20260509065015 18 123 0.0 0.0 0.00 0.08 0.03 92 1013.2
20260509064528 18 123 0.0 0.0 0.00 0.08 0.03 92 1013.2
20260509064014 18 123 0.0 0.0 0.00 0.08 0.03 92 1013.3
20260509063511 18 123 0.0 1.6 0.00 0.08 0.03 92 1013.3
20260509063010 18 123 0.0 1.6 0.00 0.08 0.03 92 1013.5
20260509062510 18 26 0.0 1.6 0.00 0.08 0.03 92 1013.7
20260509062008 18 124 0.0 1.6 0.00 0.08 0.03 92 1013.8
20260509061536 18 162 0.0 0.0 0.00 0.08 0.03 92 1013.7
20260509061009 18 162 0.0 0.0 0.00 0.08 0.03 92 1013.7
20260509060508 18 162 0.0 0.0 0.00 0.08 0.03 92 1013.8
20260509060012 19 162 0.0 0.0 0.00 0.08 0.03 92 1013.9
20260509055505 19 162 0.0 0.0 0.00 0.08 0.03 92 1014.0
20260509055003 19 162 0.0 0.0 0.00 0.08 0.03 92 1014.0
20260509054604 19 162 0.0 0.0 0.00 0.08 0.03 92 1014.1
20260509054502 19 162 0.0 0.0 0.00 0.08 0.03 92 1014.1
20260509054100 19 162 0.0 0.0 0.00 0.08 0.03 92 1014.1
20260509053557 19 162 0.0 0.0 0.00 0.08 0.03 92 1014.0
20260509052555 19 162 0.0 0.0 0.00 0.08 0.03 92 1014.3
20260509052057 19 162 0.0 0.0 0.00 0.08 0.03 91 1014.3
20260509052006 19 162 0.0 0.0 0.00 0.08 0.03 91 1014.4
20260509051553 19 162 0.0 0.0 0.03 0.08 0.03 91 1014.5
20260509051049 19 162 0.0 0.0 0.03 0.08 0.03 91 1014.6
20260509050552 19 162 0.0 0.0 0.03 0.08 0.03 91 1014.6
20260509050050 19 162 0.0 0.0 0.03 0.08 0.03 91 1014.5
20260509045546 19 161 0.0 0.0 0.03 0.08 0.03 91 1014.7
20260509045046 20 256 0.0 0.0 0.03 0.08 0.03 91 1015.1
20260509044549 20 255 0.0 1.6 0.03 0.08 0.03 91 1015.3
20260509044045 20 256 0.0 0.0 0.05 0.08 0.03 91 1015.3
20260509043542 20 256 0.0 0.0 0.08 0.08 0.03 91 1015.5
20260509043042 20 319 0.0 3.2 0.08 0.08 0.03 90 1015.6
20260509042541 20 313 0.0 3.2 0.08 0.08 0.03 90 1015.5
20260509042039 20 317 0.0 0.0 0.08 0.08 0.03 91 1015.6
20260509041537 20 317 0.0 4.8 0.05 0.05 0.00 91 1015.6
20260509041038 20 317 0.0 4.8 0.05 0.05 0.00 91 1015.7
20260509040532 21 57 0.0 4.8 0.05 0.05 0.00 90 1015.7
20260509040036 21 353 0.0 4.8 0.05 0.05 0.00 90 1015.6
20260509035528 21 314 0.0 1.6 0.05 0.05 0.05 90 1015.8
20260509035031 21 221 0.0 1.6 0.05 0.05 0.05 90 1015.7
20260509034531 21 221 0.0 1.6 0.05 0.05 0.05 89 1015.7
20260509034026 21 338 0.0 3.2 0.03 0.03 0.03 89 1015.5
20260509033522 22 138 0.0 3.2 0.00 0.00 0.00 89 1015.7
20260509033025 22 175 0.0 4.8 0.00 0.00 0.00 89 1015.7
20260509032523 22 124 0.0 4.8 0.00 0.00 0.00 89 1015.6
20260509032023 22 144 0.0 6.4 0.00 0.00 0.00 88 1015.6
20260509031522 22 120 0.0 6.4 0.00 0.00 0.00 89 1015.4
20260509031027 22 203 0.0 6.4 0.00 0.00 0.00 89 1015.3
20260509030619 22 321 0.0 4.8 0.00 0.00 0.00 89 1015.1
20260509030020 22 321 0.0 4.8 0.00 0.00 0.00 89 1015.2
20260509025517 22 143 0.0 1.6 0.00 0.00 0.00 89 1015.1
20260509025016 22 135 0.0 1.6 0.00 0.00 0.00 89 1015.1
20260509024516 22 150 0.0 3.2 0.00 0.00 0.00 89 1015.2
20260509024018 22 341 0.0 3.2 0.00 0.00 0.00 89 1015.2
20260509023514 22 241 0.0 1.6 0.00 0.00 0.00 89 1015.2